Hourly Data Report for April 11, 2018

MIRAMICHI RCS
NEW BRUNSWICK
Current Station Operator: ECCC - MSC

47°00'34.000" N
65°27'54.000" W
33.00 m
8100989
71744
ACQ

Download Data

Hourly Data (April 2018)
Hourly Data Report for April 11, 2018
TIME
LST
Temp Definition
°C
Dew Point Definition
°C
Rel Hum Definition
%
Precip. Amount Definition
mm

Wind Dir Definition
10's deg

Wind Spd Definition
km/h
Visibility Definition
km
Stn Press Definition
kPa
Hmdx Definition


Wind Chill Definition


Weather Definition


00:00 -2.4 -9.5 58 0.0 26 6   101.55   -5 LegendNANA
01:00 -3.6 -9.7 63 0.0 23 9   101.54   -7 LegendNANA
02:00 -3.4 -9.5 63 0.0 33 6   101.55   -6 LegendNANA
03:00 -6.2 -10.3 73 0.0 26 2   101.53   -7 LegendNANA
04:00 -8.0 -10.6 81 0.0 20 3   101.52   -10 LegendNANA
05:00 -7.5 -10.2 81 0.0 25 3   101.55   -9 LegendNANA
06:00 -8.6 -10.6 85 0.0 27 3   101.59   -10 LegendNANA
07:00 -6.7 -10.4 75 0.0 23 8   101.64   -11 LegendNANA
08:00 -3.9 -9.3 66 0.0 23 6   101.66   -7 LegendNANA
09:00 1.9 -9.5 42 0.0 25 6   101.65     LegendNANA
10:00 4.1 -7.3 43 0.0 23 4   101.64     LegendNANA
11:00 4.4 -9.0 37 0.0 28 7   101.58     LegendNANA
12:00 5.3 -10.3 31 0.0 22 6   101.55     LegendNANA
13:00 6.4 -10.5 29 0.0 5 1   101.47     LegendNANA
14:00 6.3 -9.7 31 0.0 7 5   101.39     LegendNANA
15:00 5.4 -8.0 37 0.0 7 16   101.36     LegendNANA
16:00 4.5 -6.5 45 0.0 8 19   101.34     LegendNANA
17:00 3.5 -5.4 52 0.0 8 15   101.32     LegendNANA
18:00 2.5 -6.0 53 0.0 9 18   101.28     LegendNANA
19:00 1.6 -6.7 54 0.0 12 15   101.28     LegendNANA
20:00 0.6 -7.9 53 0.0 13 12   101.33     LegendNANA
21:00 0.3 -7.5 56 0.0 14 16   101.34     LegendNANA
22:00 0.2 -6.8 59 0.0 15 13   101.34     LegendNANA
23:00 0.0 -7.4 58 0.0 16 17   101.33   -5 LegendNANA

Notes on Data Quality.

Legend

  • E = Estimated
  • M = Missing
  • NA = Not Available*
  • [empty] = Indicates an unobserved value
Date modified: